Previsão horária em Cedar Park

Hoje, 31 Julho, Sábado

Tempo Temperatura Precipitação Vento Pressão Humidade
00:00 +28°C° 0 mm 3 m/s 738 mmHg 75%
01:00 +28°C° 0 mm 2 m/s 738 mmHg 78%
02:00 +27°C° 0 mm 2 m/s 738 mmHg 80%
03:00 +27°C° 0 mm 2 m/s 738 mmHg 81%
04:00 +27°C° 0 mm 2 m/s 738 mmHg 83%
05:00 +27°C° 0 mm 2 m/s 738 mmHg 84%
06:00 +28°C° 0 mm 2 m/s 738 mmHg 77%
07:00 +30°C° 0 mm 2 m/s 739 mmHg 69%
08:00 +31°C° 0 mm 2 m/s 739 mmHg 62%
09:00 +34°C° 0 mm 2 m/s 739 mmHg 56%
10:00 +34°C° 0 mm 1 m/s 738 mmHg 50%
11:00 +36°C° 0 mm 1 m/s 738 mmHg 44%
12:00 +36°C° 0 mm 1 m/s 738 mmHg 41%
13:00 +38°C° 0 mm 2 m/s 737 mmHg 38%
14:00 +39°C° 0 mm 2 m/s 737 mmHg 35%
15:00 +37°C° 0 mm 3 m/s 737 mmHg 40%
16:00 +36°C° 0 mm 3 m/s 736 mmHg 44%
17:00 +35°C° 0 mm 3 m/s 736 mmHg 49%
18:00 +34°C° 0 mm 4 m/s 736 mmHg 51%
19:00 +33°C° 0 mm 4 m/s 736 mmHg 53%
20:00 +33°C° 0 mm 5 m/s 736 mmHg 56%
21:00 +32°C° 0 mm 5 m/s 737 mmHg 61%
22:00 +30°C° 0 mm 5 m/s 737 mmHg 66%
23:00 +29°C° 0 mm 5 m/s 737 mmHg 72%

Amanhã, 1 Agosto, Domingo

Tempo Temperatura Precipitação Vento Pressão Humidade
00:00 +28°C° 0 mm 4 m/s 737 mmHg 73%
01:00 +28°C° 0 mm 4 m/s 737 mmHg 75%
02:00 +27°C° 0 mm 3 m/s 737 mmHg 77%
03:00 +27°C° 0 mm 3 m/s 737 mmHg 78%
04:00 +27°C° 0 mm 3 m/s 737 mmHg 79%
05:00 +26°C° 0 mm 2 m/s 737 mmHg 80%
06:00 +28°C° 0 mm 3 m/s 737 mmHg 73%
07:00 +30°C° 0 mm 3 m/s 738 mmHg 65%
08:00 +33°C° 0 mm 4 m/s 738 mmHg 58%
09:00 +34°C° 0 mm 3 m/s 738 mmHg 52%
10:00 +36°C° 0 mm 2 m/s 738 mmHg 46%
11:00 +38°C° 0 mm 2 m/s 738 mmHg 41%
12:00 +38°C° 0 mm 2 m/s 737 mmHg 40%
13:00 +37°C° 0 mm 1 m/s 737 mmHg 40%
14:00 +37°C° 0 mm 1 m/s 736 mmHg 39%
15:00 +36°C° 0.1 mm 2 m/s 736 mmHg 45%
16:00 +35°C° 0.1 mm 2 m/s 736 mmHg 50%
17:00 +33°C° 0.1 mm 3 m/s 735 mmHg 56%
18:00 +32°C° 0 mm 2 m/s 735 mmHg 59%
19:00 +31°C° 0 mm 2 m/s 736 mmHg 62%
20:00 +30°C° 0 mm 1 m/s 736 mmHg 66%
21:00 +29°C° 0.1 mm 2 m/s 736 mmHg 68%
22:00 +29°C° 0.1 mm 2 m/s 737 mmHg 71%
23:00 +28°C° 0.1 mm 3 m/s 737 mmHg 73%

Depois de amanhã, 2 Agosto, Segunda-feira

Tempo Temperatura Precipitação Vento Pressão Humidade
00:00 +28°C° 0.9 mm 2 m/s 737 mmHg 76%
01:00 +27°C° 0.9 mm 2 m/s 737 mmHg 79%
02:00 +27°C° 0.9 mm 2 m/s 737 mmHg 82%
03:00 +27°C° 0.2 mm 2 m/s 737 mmHg 82%
04:00 +26°C° 0.2 mm 2 m/s 737 mmHg 82%
05:00 +26°C° 0.2 mm 1 m/s 737 mmHg 82%
06:00 +27°C° 0.3 mm 2 m/s 737 mmHg 76%
07:00 +29°C° 0.3 mm 2 m/s 738 mmHg 69%
08:00 +30°C° 0.3 mm 3 m/s 738 mmHg 63%
09:00 +31°C° 0 mm 3 m/s 738 mmHg 58%
10:00 +34°C° 0 mm 2 m/s 737 mmHg 52%
11:00 +36°C° 0 mm 2 m/s 737 mmHg 47%
12:00 +36°C° 0 mm 3 m/s 737 mmHg 45%
13:00 +36°C° 0 mm 3 m/s 736 mmHg 44%
14:00 +37°C° 0 mm 3 m/s 736 mmHg 42%
15:00 +36°C° 0 mm 3 m/s 735 mmHg 44%
16:00 +36°C° 0 mm 2 m/s 735 mmHg 45%
17:00 +35°C° 0 mm 2 m/s 735 mmHg 47%
18:00 +32°C° 0.4 mm 2 m/s 735 mmHg 55%
19:00 +31°C° 0.4 mm 2 m/s 735 mmHg 63%
20:00 +29°C° 0.4 mm 3 m/s 736 mmHg 70%
21:00 +29°C° 0.4 mm 2 m/s 736 mmHg 72%
22:00 +29°C° 0.4 mm 2 m/s 736 mmHg 74%
23:00 +28°C° 0.4 mm 1 m/s 736 mmHg 76%

3 Agosto, Terça-feira

Tempo Temperatura Precipitação Vento Pressão Humidade
00:00 +28°C° 0.3 mm 1 m/s 736 mmHg 77%
01:00 +28°C° 0.3 mm 1 m/s 736 mmHg 78%
02:00 +28°C° 0.3 mm 1 m/s 735 mmHg 79%
03:00 +27°C° 1.2 mm 1 m/s 736 mmHg 81%
04:00 +27°C° 1.2 mm 1 m/s 736 mmHg 83%
05:00 +27°C° 1.2 mm 1 m/s 736 mmHg 84%
06:00 +28°C° 0.3 mm 2 m/s 736 mmHg 78%
07:00 +29°C° 0.3 mm 2 m/s 736 mmHg 72%
08:00 +30°C° 0.3 mm 3 m/s 737 mmHg 67%
09:00 +33°C° 1.1 mm 3 m/s 737 mmHg 61%
10:00 +34°C° 1.1 mm 3 m/s 737 mmHg 55%
11:00 +35°C° 1.1 mm 3 m/s 737 mmHg 50%
12:00 +35°C° 0 mm 3 m/s 736 mmHg 45%
13:00 +36°C° 0 mm 3 m/s 736 mmHg 41%
14:00 +36°C° 0 mm 4 m/s 735 mmHg 37%
15:00 +36°C° 0 mm 3 m/s 735 mmHg 38%
16:00 +35°C° 0 mm 3 m/s 735 mmHg 39%
17:00 +35°C° 0 mm 3 m/s 735 mmHg 40%
18:00 +33°C° 0 mm 3 m/s 735 mmHg 43%
19:00 +31°C° 0 mm 3 m/s 735 mmHg 46%
20:00 +29°C° 0 mm 3 m/s 736 mmHg 49%
21:00 +29°C° 0 mm 3 m/s 736 mmHg 52%
22:00 +28°C° 0 mm 2 m/s 736 mmHg 56%
23:00 +28°C° 0 mm 2 m/s 736 mmHg 60%

4 Agosto, Quarta-feira

Tempo Temperatura Precipitação Vento Pressão Humidade
00:00 +27°C° 0 mm 2 m/s 736 mmHg 61%
01:00 +27°C° 0 mm 1 m/s 736 mmHg 63%
02:00 +26°C° 0 mm 1 m/s 736 mmHg 65%
03:00 +26°C° 0 mm 1 m/s 736 mmHg 67%
04:00 +25°C° 0 mm 1 m/s 736 mmHg 69%
05:00 +25°C° 0 mm 1 m/s 737 mmHg 72%
06:00 +27°C° 0 mm 2 m/s 737 mmHg 69%
07:00 +28°C° 0 mm 2 m/s 738 mmHg 66%
08:00 +30°C° 0 mm 3 m/s 738 mmHg 64%
09:00 +31°C° 0 mm 3 m/s 738 mmHg 56%
10:00 +34°C° 0 mm 3 m/s 738 mmHg 48%
11:00 +35°C° 0 mm 3 m/s 738 mmHg 40%
12:00 +35°C° 0 mm 3 m/s 738 mmHg 39%
13:00 +36°C° 0 mm 3 m/s 737 mmHg 37%
14:00 +36°C° 0 mm 3 m/s 737 mmHg 36%
15:00 +35°C° 0 mm 3 m/s 737 mmHg 39%
16:00 +35°C° 0 mm 3 m/s 736 mmHg 42%
17:00 +34°C° 0 mm 3 m/s 736 mmHg 45%
18:00 +33°C° 0 mm 3 m/s 737 mmHg 47%
19:00 +31°C° 0 mm 2 m/s 737 mmHg 49%
20:00 +30°C° 0 mm 2 m/s 737 mmHg 51%
21:00 +29°C° 0 mm 2 m/s 737 mmHg 54%
22:00 +29°C° 0 mm 2 m/s 737 mmHg 57%
23:00 +28°C° 0 mm 2 m/s 737 mmHg 59%

5 Agosto, Quinta-feira

Tempo Temperatura Precipitação Vento Pressão Humidade
00:00 +27°C° 0 mm 2 m/s 737 mmHg 63%
01:00 +27°C° 0 mm 2 m/s 737 mmHg 66%
02:00 +27°C° 0 mm 2 m/s 737 mmHg 69%
03:00 +26°C° 0 mm 2 m/s 738 mmHg 71%
04:00 +26°C° 0 mm 2 m/s 738 mmHg 73%
05:00 +26°C° 0 mm 2 m/s 738 mmHg 75%
06:00 +28°C° 0 mm 2 m/s 738 mmHg 68%
07:00 +29°C° 0 mm 2 m/s 739 mmHg 61%
08:00 +31°C° 0 mm 3 m/s 739 mmHg 54%
09:00 +32°C° 0 mm 2 m/s 739 mmHg 49%
10:00 +34°C° 0 mm 2 m/s 739 mmHg 44%
11:00 +36°C° 0 mm 2 m/s 739 mmHg 39%
12:00 +36°C° 0 mm 2 m/s 738 mmHg 36%
13:00 +37°C° 0 mm 2 m/s 738 mmHg 34%
14:00 +38°C° 0 mm 2 m/s 737 mmHg 32%
15:00 +37°C° 0 mm 2 m/s 737 mmHg 34%
16:00 +36°C° 0 mm 3 m/s 737 mmHg 36%
17:00 +36°C° 0 mm 3 m/s 737 mmHg 38%
18:00 +34°C° 0 mm 3 m/s 737 mmHg 41%
19:00 +33°C° 0 mm 3 m/s 737 mmHg 45%
20:00 +30°C° 0 mm 3 m/s 737 mmHg 48%
21:00 +30°C° 0 mm 3 m/s 737 mmHg 52%
22:00 +29°C° 0 mm 4 m/s 737 mmHg 55%
23:00 +28°C° 0 mm 4 m/s 738 mmHg 58%
Mostrar mais

Necessitamos do seu Consentimento

A Meteoprog e os seus Fornecedores de Serviços podem armazenar e aceder a dados pessoais como cookies, identificadores do dispositivo ou outras tecnologias semelhantes existentes no seu dispositivo e processar estes dados para personalizar conteúdos e anúncios, assim como funcionalidades nas redes sociais e análise de tráfego.

  • Armazenar e/ou aceder a informações no seu dispositivo

    Os cookies, identificadores do dispositivo ou outras informações podem ser armazenados ou acedidos no seu dispositivo, para os fins acima indicados.

  • Anúncios e conteúdos personalizados, medição de anúncios e conteúdos, dados sobre o público-alvo e desenvolvimento de produtos

    Os anúncios e os conteúdos podem ser personalizados com base num perfil. Podem ser adicionados dados adicionais para uma maior personalização dos anúncios e dos conteúdos. A eficácia dos anúncios e dos conteúdos pode ser medida. Podem ser obtidas informações sobre o público que visualizou os anúncios e os conteúdos. Estes dados podem ser usados para desenvolver ou melhorar sistemas, softwares ou a experiência do utilizador.

Ao clicar em "Eu concordo”, permitirá o uso de cookies, identificadores do dispositivo e web beacons mencionados ou outras tecnologias semelhantes. As configurações do navegador do seu dispositivo podem ser alteradas.

Para certos fins, podem ser invocados interesses legítimos ao invés de consentimento. Pode ler mais informação sobre este assunto na nossa Política de Privacidade e Cookies.